User: anonymous   Login
Location: Meinert
(37.9441°N, 122.0275°W)
Time: 08:37:22
(UTC+00:00)
Language:

Cosmos 1656 Rocket - Orbit

View from above orbital plane
View from above orbital plane
View from above satellite
View from above satellite

Ground track
Ground track

The orbit data is extracted from the following two-line orbital elements,

1 15772U 85042D   24166.95073477  .00000094  00000-0  64163-4 0  9999
2 15772  71.1087 344.2025 0034337  27.5162  82.1710 14.21634709 24452
Epoch (UTC): 14 June 2024 22:49:03
Eccentricity: 0.0034337
inclination: 71.1087°
perigee height: 795 km
apogee height: 844 km
right ascension of ascending node: 344.2025°
argument of perigee: 27.5162°
revolutions per day: 14.21634709
mean anomaly at epoch: 82.1710°
orbit number at epoch: 2445

The dashed part of the orbit path shows where the satellite is in the earth's shadow,  

DLR